Location: Waco, TX
(31.5480°N, 97.1670°W)
Time: 04:03:50
(UTC-06:00)

ISS - Pass Details

Date: 20 November 2017
Orbit: 401 x 407 km, 51.6° (Epoch: 18 November)

Event Time Altitude Azimuth Distance (km) Brightness Sun altitude
Rises 04:27:44 0° 324° (NW) 2,312 - -32.5°
Reaches altitude 10° 04:29:58 10° 336° (NNW) 1,451 - -32.0°
Maximum altitude 04:32:53 30° 40° (NE) 744 - -31.4°
Exits shadow 04:35:30 12° 101° (ESE) 1,335 -0.4 -30.8°
Drops below altitude 10° 04:35:48 10° 104° (ESE) 1,445 -0.2 -30.8°
Sets 04:38:01 0° 115° (ESE) 2,300 1.0 -30.3°
